This demonstration page uses our WeatherBlox Daily Observations layout. Learn more.

Hourly Observations for June 11, 2020

Temp ( °F °C ) Dew Point ( °F °C ) Humidity (%) Winds ( mph kmh ) Pressure ( in mb ) Visibility ( mi km ) Precip ( " mm )
12:54 am 00:54 Clear 59 15 46 7.8 62 62 Calm 30.08 1019 10 16.0934 0 0
1:54 am 01:54 Clear 57 13.9 47 8.3 69 69 Calm 30.1 1019 10 16.0934 0 0
2:54 am 02:54 Clear 57 13.9 47 8.3 69 69 Calm 30.11 1020 10 16.0934 0 0
3:54 am 03:54 Clear 56 13.3 48 8.9 75 75 Calm 30.12 1020 10 16.0934 0 0
4:54 am 04:54 Clear 57 13.9 47 8.3 69 69 S 3 6 30.13 1020 10 16.0934 0 0
5:54 am 05:54 Clear 57 13.9 47 8.3 69 69 S 5 7 30.15 1021 10 16.0934 0 0
6:54 am 06:54 Sunny 62 16.7 48 8.9 60 60 WSW 12 19 30.17 1022 10 16.0934 0 0
7:54 am 07:54 Sunny 68 20 50 10 53 53 WSW 9 15 30.18 1022 10 16.0934 0 0
8:54 am 08:54 Sunny 73 22.8 52 11.1 48 48 SSW 10 17 30.19 1022 10 16.0934 0 0
9:54 am 09:54 Sunny 76 24.4 50 10 40 40 WSW 12 19 30.19 1022 10 16.0934 0 0
10:54 am 10:54 Sunny 80 26.7 49 9.4 34 34 W 10 17 30.19 1022 10 16.0934 0 0
11:54 am 11:54 Sunny 81 27.2 50 10 34 34 WSW 8 13 30.19 1022 10 16.0934 0 0
12:54 pm 12:54 Sunny 83 28.3 53 11.7 36 36 undefined N/A 30.18 1022 10 16.0934 0 0
1:54 pm 13:54 Sunny 84 28.9 54 12.2 36 36 WSW 8 13 30.17 1022 10 16.0934 0 0
2:54 pm 14:54 Sunny 88 31.1 55 12.8 33 33 N 3 6 30.15 1021 10 16.0934 0 0
3:54 pm 15:54 Sunny 87 30.6 55 12.8 34 34 VRB 3 6 30.14 1021 10 16.0934 0 0
4:54 pm 16:54 Sunny 88 31.1 56 13.3 34 34 VRB 7 11 30.13 1020 10 16.0934 0 0
5:54 pm 17:54 Sunny 89 31.7 55 12.8 31 31 N 6 9 30.13 1020 10 16.0934 0 0
6:54 pm 18:54 Sunny 88 31.1 53 11.7 30 30 Calm 30.13 1020 10 16.0934 0 0
7:54 pm 19:54 Sunny 84 28.9 54 12.2 36 36 VRB 6 9 30.14 1021 10 16.0934 0 0
8:54 pm 20:54 Sunny 79 26.1 54 12.2 42 42 E 8 13 30.15 1021 10 16.0934 0 0
9:54 pm 21:54 Clear 73 22.8 54 12.2 51 51 ENE 7 11 30.18 1022 10 16.0934 0 0
10:54 pm 22:54 Clear 73 22.8 53 11.7 50 50 ENE 9 15 30.21 1023 10 16.0934 0 0
11:54 pm 23:54 Clear 71 21.7 53 11.7 53 53 E 3 6 30.22 1023 10 16.0934 0 0

Powered by AerisWeather